Regional Weather Roundup
Issued by NWS Goodland, KS

Home | Current Version | Previous Version | Graphics & Text | Print | Product List | Glossary On
Versions: 1 2 3 4 5 6 7 8 9 10 11 12 13 14 15 16 17 18 19 20 21 22 23 24 25 26 27 28 29 30 31 32 33 34 35 36 37 38 39 40 41 42 43 44 45 46 47 48 49 50
000
ASUS43 KGLD 251308
RWRGLD

GOODLAND FORECAST AREA HOURLY WEATHER ROUNDUP
NATIONAL WEATHER SERVICE GOODLAND KS
700 AM MDT MON MAY 25 2015

...OFFICIAL OBSERVATIONS...

CITY           SKY/WX    TMP DP  RH WIND       PRES   REMARKS
GOODLAND KS    SUNNY     51  47  86 W10       29.84R
HILL CITY KS   MOSUNNY   54  53  97 CALM      29.83R
IMPERIAL NEB   CLOUDY    52  50  93 CALM      29.80R
MCCOOK NEB     MOSUNNY   55  53  93 SW5       29.80R
AKRON CO       MOSUNNY   46  45  96 W12       29.86R
BURLINGTON CO  MOSUNNY   50  45  83 NW7       29.86R
LIMON CO       PTSUNNY   45  43  93 W6        29.90R
$$

...UNOFFICIAL OBSERVATIONS...

CITY           SKY/WX    TMP DP  RH WIND       PRES   REMARKS
GOVE KS          N/A     52  32  46 MISG        N/A
LENORA KS        N/A     55  32  41 MISG        N/A
SHARON SPRINGS   N/A     50  49  95 MISG        N/A
KIT CARSON CO    N/A     48  45  91 MISG        N/A
$$



USA.gov is the U.S. government's official web portal to all federal, state and local government web resources and services.